Temp
69 68 68 66 58 54 50 53 58 59 61 62 64 65 64 60 61 61 73 74 74 76 80 82 78 78 78 78 78 78 78 78 78 78 78 78 78 78 78 78 78 78 79 80 79 79 79 78 77
67 69 65 58 52 49 52 55 56 60 63 63 64 64 62 59 66 67 71 74 75 77 80 81 78 78 78 78 78 78 78 78 78 78 78 78 78 78 78 78 78 78 80 80 78 77 77 77 77
69 68 62 53 47 50 52 55 58 61 63 64 62 63 62 60 66 68 73 73 75 77 80 79 78 78 78 77 78 77 77 77 78 78 78 78 78 78 78 78 77 77 77 77 77 76 76 76 76
65 64 59 52 49 52 54 57 60 61 63 64 63 60 63 67 67 70 73 74 75 74 80 79 77 77 77 78 78 78 77 77 77 77 78 77 78 78 78 77 76 76 76 76 76 75 75 75 75
61 58 49 47 49 53 56 58 59 60 61 60 62 58 60 67 70 71 69 72 72 73 74 79 77 78 77 77 77 77 77 77 77 77 77 78 78 78 77 76 76 75 75 76 76 75 75 74 75
55 55 47 45 48 53 57 57 59 59 60 61 60 60 61 67 68 68 69 70 71 71 73 73 73 75 76 77 77 77 77 77 77 77 77 77 77 77 77 76 76 75 76 76 76 75 75 75 74
52 49 45 45 47 52 56 58 57 58 59 60 62 59 62 66 68 67 68 70 71 70 72 71 71 73 72 73 73 75 76 76 76 76 76 76 75 75 76 76 76 76 76 76 75 75 75 75 75
52 50 45 46 48 50 55 57 58 59 58 63 63 59 59 65 67 67 67 67 69 69 69 69 71 71 70 71 72 72 72 72 73 73 72 72 71 71 73 73 74 75 75 75 75 75 75 75 74
56 46 44 46 49 51 56 56 58 60 61 61 60 61 62 65 67 66 64 65 66 66 66 66 66 69 71 75 73 72 71 70 70 71 69 71 78 78 76 72 70 72 74 74 74 74 74 73 72
50 45 47 50 51 52 54 55 54 58 58 58 59 62 63 63 63 62 61 60 61 63 64 64 64 65 67 71 70 71 72 73 76 76 76 77 77 78 76 71 68 71 72 72 74 74 73 71 78
50 46 49 51 53 55 54 54 54 56 56 58 58 59 61 62 60 59 60 59 59 60 62 62 62 63 64 66 67 69 68 70 69 72 72 74 73 76 76 75 76 76 70 76 76 76 76 77 76
47 50 51 51 51 53 52 53 53 53 55 56 58 58 59 59 59 59 59 58 57 58 58 59 61 62 62 64 65 65 65 67 69 70 71 71 70 71 72 74 75 75 76 75 75 74 75 76 76
48 49 50 51 51 50 52 50 52 52 56 56 55 57 57 58 58 57 56 57 57 57 57 59 60 61 62 62 64 64 63 62 65 65 69 71 73 71 71 70 70 71 74 75 75 73 72 72 75
49 49 49 50 50 49 50 50 51 54 55 56 55 56 56 57 56 55 55 56 56 57 57 58 59 61 61 61 62 63 64 64 62 63 66 68 68 69 71 70 70 69 72 74 74 74 72 71 71
50 47 48 47 49 48 47 49 49 54 54 55 55 56 55 55 54 54 55 55 56 57 57 57 59 60 59 59 60 62 62 65 63 63 65 66 67 67 70 70 70 68 70 71 70 70 70 70 70
45 44 42 47 48 48 50 45 52 52 52 53 53 54 53 53 54 55 56 56 56 56 56 57 58 57 58 58 58 60 61 62 62 62 62 64 65 66 66 68 70 72 70 68 68 67 66 66 67
39 35 40 43 47 46 47 45 51 52 51 51 52 52 52 52 53 55 56 56 56 56 56 56 56 56 56 57 57 57 58 59 61 61 60 62 64 65 65 66 68 71 70 69 67 66 66 66 66
37 36 38 40 44 44 42 42 48 50 49 50 51 50 49 51 53 55 55 55 56 56 55 54 55 55 56 56 56 57 57 58 59 59 60 62 61 63 63 64 67 69 68 68 67 66 66 66 65
39 39 38 40 44 42 41 40 45 49 47 48 48 47 47 49 53 53 54 55 55 55 54 54 53 55 55 55 54 55 55 57 58 58 59 60 62 62 62 62 64 66 67 68 69 68 65 63 65
40 38 37 40 43 42 38 40 47 49 48 46 45 46 45 48 50 52 53 54 53 52 53 53 53 54 55 55 56 56 56 57 57 57 58 59 60 61 62 62 63 65 65 66 66 67 63 62 64
37 36 35 37 40 40 36 37 41 45 44 44 45 45 46 47 49 50 51 52 52 52 51 51 51 52 55 56 55 56 56 55 54 56 56 59 60 61 62 62 63 64 64 64 65 66 65 60 62
37 39 39 38 35 31 37 29 37 42 42 43 45 44 46 47 48 49 50 51 51 51 51 51 51 52 55 55 53 53 51 50 53 53 55 56 58 60 61 62 63 63 63 63 63 64 64 64 61
37 41 38 38 33 28 32 27 36 38 42 44 45 44 45 46 47 48 49 50 51 51 50 50 52 54 54 54 53 52 51 52 53 52 53 55 57 59 60 61 62 62 63 63 65 62 61 61 63
42 38 35 33 32 23 30 28 32 36 41 44 46 45 46 47 47 48 49 49 50 50 50 50 50 51 53 53 52 51 50 51 51 52 52 53 55 56 59 60 61 62 62 63 63 63 61 61 61
39 34 23 23 20 25 31 27 34 41 43 45 47 48 47 46 46 47 48 48 49 50 50 50 49 49 51 52 52 52 51 50 49 51 51 52 53 55 56 57 59 60 61 61 61 60 60 61 60
37 35 23 20 21 21 30 24 34 42 44 44 45 45 46 46 46 46 47 48 48 48 49 48 48 48 49 49 49 50 50 50 50 51 51 52 53 54 56 56 58 59 60 60 59 59 59 60 59
36 31 36 22 23 25 25 28 39 41 41 43 44 44 45 46 46 47 47 47 48 47 48 48 48 48 48 48 49 49 49 48 48 50 51 51 52 54 56 56 55 56 57 57 58 57 58 59 58
37 38 29 27 19 20 25 23 30 34 42 44 43 45 46 47 47 47 47 47 48 47 48 47 47 47 48 47 48 49 48 48 48 50 49 49 50 52 53 54 53 54 55 55 55 55 56 57 56
36 32 32 31 28 24 22 29 34 36 43 45 46 46 47 47 47 47 47 48 48 48 47 47 47 47 47 47 48 48 48 48 48 48 48 49 49 50 51 53 52 53 53 53 53 53 54 52 53
36 34 33 28 25 31 28 28 43 41 42 43 45 46 47 47 48 49 48 48 47 47 46 46 46 46 47 47 47 47 47 47 47 48 47 48 48 48 48 50 50 50 51 51 51 50 50 49 49
MSLP
1014.18 1014.30 1014.39 1014.47 1015.93 1016.50 1016.32 1016.32 1016.12 1015.90 1015.88 1015.95 1015.83 1015.76 1016.03 1016.57 1016.62 1017.14 1017.01 1017.03 1016.79 1016.35 1015.96 1016.15 1016.39 1016.45 1016.68 1016.78 1016.92 1017.16 1017.25 1017.42 1017.55 1017.60 1017.67 1017.72 1017.76 1017.83 1017.90 1017.93 1017.96 1017.92 1018.00 1018.05 1018.34 1018.42 1018.53 1018.66 1018.64
1014.37 1014.42 1014.74 1015.44 1016.21 1016.66 1016.60 1016.28 1016.15 1016.01 1016.04 1016.28 1016.22 1016.45 1016.57 1017.26 1017.32 1017.28 1017.14 1017.01 1016.76 1016.22 1015.97 1016.11 1016.31 1016.51 1016.67 1016.88 1016.98 1017.16 1017.29 1017.39 1017.46 1017.61 1017.68 1017.74 1017.80 1017.90 1017.95 1017.93 1017.89 1018.03 1017.99 1018.10 1018.46 1018.67 1018.79 1018.91 1018.90
1014.37 1014.52 1015.14 1016.04 1016.73 1016.60 1016.46 1016.29 1016.21 1016.27 1016.31 1016.31 1016.75 1017.22 1017.38 1017.78 1017.76 1017.67 1017.57 1017.25 1016.70 1015.99 1015.73 1016.01 1016.28 1016.46 1016.68 1016.82 1017.02 1017.12 1017.29 1017.27 1017.44 1017.59 1017.67 1017.73 1017.82 1017.90 1018.00 1018.03 1017.99 1018.08 1018.17 1018.32 1018.55 1018.76 1018.86 1018.96 1018.99
1014.62 1015.10 1016.40 1016.39 1016.80 1016.82 1016.68 1016.57 1016.41 1016.42 1016.66 1016.64 1017.00 1017.58 1018.02 1018.26 1018.10 1018.01 1017.71 1017.23 1016.77 1016.39 1015.83 1016.14 1016.40 1016.54 1016.65 1016.84 1016.95 1017.12 1017.09 1017.42 1017.36 1017.55 1017.70 1017.78 1017.86 1017.94 1017.98 1018.07 1018.15 1018.22 1018.33 1018.42 1018.55 1018.73 1018.86 1018.90 1018.92
1015.03 1015.82 1016.82 1017.30 1017.31 1017.09 1017.05 1016.90 1016.79 1016.68 1016.84 1017.06 1017.20 1017.88 1018.17 1018.34 1018.33 1018.15 1017.88 1017.54 1017.27 1016.93 1016.58 1016.54 1016.68 1016.75 1016.84 1016.93 1017.01 1017.09 1017.18 1017.31 1017.41 1017.46 1017.54 1017.68 1017.79 1017.89 1017.98 1018.05 1018.19 1018.24 1018.31 1018.40 1018.50 1018.63 1018.75 1018.86 1018.92
1015.74 1016.44 1017.47 1017.82 1017.80 1017.53 1017.36 1017.25 1016.97 1017.13 1017.21 1017.26 1017.51 1017.85 1018.39 1018.50 1018.40 1018.35 1018.13 1017.89 1017.70 1017.52 1017.34 1017.18 1017.06 1016.96 1016.94 1017.00 1017.05 1017.14 1017.24 1017.33 1017.40 1017.44 1017.50 1017.53 1017.68 1017.76 1017.86 1017.92 1018.02 1018.16 1018.20 1018.25 1018.33 1018.41 1018.58 1018.74 1018.79
1015.89 1016.99 1017.96 1018.11 1018.16 1017.90 1017.69 1017.50 1017.35 1017.50 1017.54 1017.70 1017.76 1018.05 1018.59 1018.49 1018.57 1018.52 1018.33 1018.05 1017.88 1017.97 1017.85 1017.69 1017.50 1017.33 1017.19 1017.16 1017.20 1017.22 1017.25 1017.34 1017.36 1017.41 1017.50 1017.55 1017.59 1017.63 1017.69 1017.75 1017.88 1017.98 1018.03 1018.07 1018.18 1018.28 1018.40 1018.56 1018.68
1016.23 1017.14 1018.37 1018.56 1018.35 1018.31 1018.00 1017.81 1017.90 1017.84 1017.97 1017.95 1017.99 1018.30 1018.76 1018.67 1018.69 1018.64 1018.47 1018.34 1018.21 1018.20 1018.18 1018.15 1018.00 1017.83 1017.66 1017.54 1017.39 1017.34 1017.32 1017.37 1017.35 1017.29 1017.34 1017.38 1017.48 1017.58 1017.61 1017.66 1017.71 1017.79 1017.81 1017.86 1018.02 1018.09 1018.18 1018.36 1018.51
1016.29 1017.50 1018.73 1018.71 1018.54 1018.51 1018.32 1018.21 1018.30 1018.28 1018.16 1018.25 1018.53 1018.61 1018.86 1018.80 1018.78 1018.80 1018.82 1018.71 1018.57 1018.46 1018.47 1018.47 1018.34 1018.14 1017.97 1017.66 1017.58 1017.46 1017.33 1017.28 1017.24 1017.19 1017.21 1017.22 1017.14 1017.18 1017.32 1017.39 1017.49 1017.52 1017.59 1017.65 1017.70 1017.80 1017.90 1018.06 1018.22
1016.86 1018.06 1018.72 1018.90 1018.74 1018.69 1018.69 1018.67 1018.80 1018.70 1018.57 1018.87 1019.01 1019.02 1019.03 1019.01 1019.12 1019.27 1019.38 1019.35 1019.24 1018.96 1018.90 1018.85 1018.70 1018.50 1018.32 1018.03 1017.96 1017.78 1017.59 1017.45 1017.23 1017.16 1017.03 1016.86 1016.73 1016.84 1016.94 1017.14 1017.25 1017.37 1017.44 1017.46 1017.42 1017.50 1017.61 1017.86 1017.74
1017.70 1018.51 1018.92 1019.23 1019.03 1018.91 1019.04 1019.22 1019.19 1019.01 1019.06 1019.05 1019.20 1019.30 1019.23 1019.28 1019.36 1019.49 1019.63 1019.75 1019.71 1019.58 1019.34 1019.12 1018.91 1018.74 1018.49 1018.26 1018.16 1017.94 1017.89 1017.69 1017.46 1017.24 1017.14 1016.98 1016.83 1016.62 1016.65 1016.76 1016.81 1016.92 1017.05 1017.04 1017.07 1017.08 1017.16 1017.11 1017.35
1018.40 1019.22 1019.16 1019.46 1019.42 1019.24 1019.52 1019.58 1019.61 1019.48 1019.45 1019.48 1019.54 1019.59 1019.65 1019.74 1019.83 1019.86 1019.89 1019.92 1019.94 1019.84 1019.78 1019.49 1019.15 1018.84 1018.62 1018.41 1018.17 1018.07 1017.95 1017.75 1017.49 1017.35 1017.18 1016.87 1016.77 1016.69 1016.59 1016.47 1016.37 1016.47 1016.50 1016.53 1016.63 1016.65 1016.63 1016.67 1016.72
1018.83 1019.55 1019.69 1019.87 1019.71 1019.83 1019.71 1019.81 1019.93 1019.61 1019.50 1019.54 1019.63 1019.80 1019.80 1019.88 1020.03 1020.15 1020.25 1020.24 1020.17 1019.98 1019.83 1019.60 1019.28 1019.01 1018.79 1018.50 1018.26 1018.02 1017.86 1017.73 1017.46 1017.27 1016.96 1016.74 1016.37 1016.22 1016.11 1016.16 1016.20 1016.19 1016.14 1016.05 1016.05 1016.25 1016.23 1016.26 1016.23
1019.56 1019.77 1020.07 1020.17 1020.10 1020.17 1019.96 1019.97 1019.94 1019.73 1019.68 1019.66 1019.74 1019.90 1019.92 1019.96 1020.12 1020.24 1020.31 1020.28 1020.20 1020.01 1019.73 1019.53 1019.22 1019.00 1018.89 1018.61 1018.28 1017.93 1017.69 1017.47 1017.29 1017.04 1016.72 1016.57 1016.38 1016.07 1015.74 1015.51 1015.42 1015.54 1015.55 1015.49 1015.58 1015.52 1015.66 1015.76 1015.80
1019.78 1020.29 1020.29 1020.60 1020.52 1020.51 1020.39 1020.12 1019.96 1019.82 1019.78 1019.86 1019.92 1020.00 1020.04 1020.12 1020.20 1020.18 1020.24 1020.20 1020.14 1019.99 1019.86 1019.56 1019.16 1018.90 1018.84 1018.61 1018.33 1017.91 1017.62 1017.34 1017.07 1016.74 1016.47 1016.28 1016.14 1015.91 1015.57 1015.31 1015.14 1015.02 1014.82 1014.83 1015.02 1015.17 1015.19 1015.12 1015.11
1020.40 1020.75 1020.96 1021.09 1020.85 1020.70 1020.39 1020.05 1019.72 1019.83 1019.78 1019.93 1019.98 1020.01 1020.10 1020.15 1020.13 1020.06 1020.06 1020.03 1019.96 1019.84 1019.67 1019.45 1019.15 1018.91 1018.66 1018.41 1018.16 1017.80 1017.44 1017.16 1016.82 1016.52 1016.18 1015.86 1015.61 1015.45 1015.25 1014.96 1014.68 1014.50 1014.52 1014.50 1014.52 1014.65 1014.64 1014.62 1014.70
1021.66 1021.57 1021.49 1021.46 1021.28 1021.07 1020.93 1020.48 1019.85 1019.79 1019.96 1020.05 1019.94 1019.87 1020.11 1020.07 1020.07 1019.96 1020.05 1020.05 1019.89 1019.81 1019.58 1019.29 1019.12 1018.85 1018.60 1018.26 1017.98 1017.58 1017.20 1016.84 1016.46 1016.15 1015.78 1015.34 1014.99 1014.73 1014.63 1014.50 1014.27 1014.09 1013.93 1013.98 1013.90 1013.85 1013.94 1013.90 1013.92
1022.11 1021.99 1021.92 1021.75 1021.81 1021.50 1021.36 1020.58 1019.73 1019.67 1019.83 1019.54 1019.57 1019.74 1019.88 1019.90 1019.66 1019.72 1019.88 1019.84 1019.77 1019.68 1019.54 1019.30 1019.04 1018.75 1018.47 1018.07 1017.67 1017.27 1016.94 1016.54 1016.26 1015.87 1015.36 1014.88 1014.55 1014.30 1014.09 1013.80 1013.59 1013.45 1013.49 1013.51 1013.49 1013.30 1013.26 1013.26 1013.41
1021.83 1021.84 1022.09 1022.05 1022.13 1022.13 1021.58 1020.95 1019.62 1019.32 1019.40 1019.12 1019.13 1019.46 1019.40 1019.45 1019.41 1019.50 1019.53 1019.48 1019.36 1019.28 1019.11 1018.97 1018.74 1018.42 1018.16 1017.75 1017.30 1016.75 1016.48 1016.12 1015.81 1015.40 1014.96 1014.47 1014.03 1013.72 1013.57 1013.38 1013.10 1012.89 1012.87 1012.86 1012.90 1012.99 1012.95 1012.87 1013.05
1022.12 1022.37 1022.72 1022.63 1022.60 1022.81 1022.25 1020.60 1019.20 1018.80 1018.68 1018.81 1019.00 1019.06 1019.14 1019.21 1019.17 1019.13 1019.10 1019.09 1019.11 1019.08 1018.97 1018.77 1018.52 1018.22 1017.98 1017.73 1017.29 1016.86 1016.46 1015.91 1015.58 1015.06 1014.53 1014.12 1013.71 1013.27 1013.08 1012.88 1012.64 1012.47 1012.35 1012.36 1012.47 1012.38 1012.45 1012.54 1012.66
1022.96 1023.05 1023.31 1023.51 1023.31 1023.43 1023.15 1021.18 1019.31 1018.56 1018.68 1018.74 1018.85 1018.93 1019.09 1019.02 1019.07 1019.04 1019.06 1018.94 1019.03 1018.96 1018.87 1018.70 1018.46 1018.18 1017.79 1017.57 1017.21 1016.69 1016.27 1015.79 1015.45 1014.86 1014.27 1013.77 1013.38 1012.91 1012.66 1012.49 1012.47 1012.31 1012.18 1012.01 1011.93 1011.78 1011.80 1011.84 1012.07
1023.23 1023.57 1023.67 1024.00 1024.33 1024.64 1024.07 1022.45 1020.05 1018.62 1018.52 1018.43 1018.44 1018.77 1018.75 1018.85 1018.93 1019.03 1018.98 1018.89 1018.97 1018.97 1018.89 1018.70 1018.44 1018.06 1017.64 1017.50 1017.17 1016.72 1016.27 1015.74 1015.45 1015.03 1014.47 1013.80 1013.17 1012.65 1012.26 1012.06 1011.97 1011.92 1011.80 1011.68 1011.63 1011.64 1011.37 1011.15 1011.16
1023.57 1023.78 1024.21 1024.63 1025.11 1025.56 1024.83 1024.33 1019.73 1018.92 1018.10 1017.76 1017.80 1018.17 1018.30 1018.48 1018.68 1018.64 1018.74 1018.79 1018.87 1018.87 1018.74 1018.54 1018.21 1017.81 1017.57 1017.36 1017.11 1016.67 1016.16 1015.84 1015.38 1014.98 1014.48 1013.77 1013.02 1012.48 1012.02 1011.78 1011.64 1011.55 1011.30 1011.12 1011.03 1011.25 1011.22 1011.07 1010.75
1023.70 1024.27 1024.97 1025.49 1025.86 1026.06 1025.34 1024.88 1020.60 1018.89 1017.82 1017.45 1017.37 1017.59 1017.77 1018.08 1018.24 1018.44 1018.48 1018.60 1018.53 1018.49 1018.39 1018.34 1018.12 1017.87 1017.51 1017.31 1017.05 1016.72 1016.25 1015.87 1015.38 1014.90 1014.42 1013.81 1013.18 1012.50 1012.01 1011.57 1011.36 1011.22 1011.06 1010.84 1010.77 1010.74 1010.69 1010.59 1010.33
1023.97 1024.72 1025.62 1026.31 1026.60 1026.34 1025.71 1025.10 1020.10 1018.02 1017.42 1017.29 1017.26 1017.33 1017.43 1017.70 1017.96 1018.05 1018.13 1018.17 1018.07 1018.07 1018.17 1018.13 1018.10 1017.79 1017.53 1017.27 1017.03 1016.75 1016.45 1015.99 1015.52 1015.01 1014.50 1013.81 1013.26 1012.67 1012.32 1011.85 1011.29 1011.08 1010.93 1010.80 1010.67 1010.58 1010.43 1010.14 1009.93
1024.37 1024.91 1025.97 1026.90 1027.46 1026.92 1025.80 1023.58 1018.54 1017.31 1016.98 1016.94 1016.99 1017.06 1017.23 1017.43 1017.48 1017.52 1017.60 1017.72 1017.68 1017.72 1017.83 1018.02 1017.86 1017.51 1017.42 1017.14 1017.03 1016.86 1016.52 1016.05 1015.52 1014.98 1014.44 1013.96 1013.47 1012.95 1012.46 1012.07 1011.49 1010.98 1010.80 1010.67 1010.49 1010.41 1010.17 1009.87 1009.70
1024.71 1025.35 1025.93 1026.83 1027.67 1027.30 1024.65 1022.03 1018.40 1016.82 1016.49 1016.66 1016.69 1016.87 1016.81 1016.94 1016.96 1016.96 1017.16 1017.23 1017.17 1017.32 1017.46 1017.49 1017.28 1017.21 1017.14 1017.16 1016.94 1016.79 1016.57 1016.13 1015.61 1014.98 1014.50 1014.17 1013.69 1013.05 1012.45 1012.03 1011.71 1011.27 1011.01 1010.79 1010.45 1010.25 1010.09 1009.86 1009.65
1024.66 1025.27 1025.97 1026.59 1027.02 1026.35 1023.89 1022.26 1019.18 1017.11 1016.28 1016.07 1016.22 1016.13 1016.25 1016.44 1016.54 1016.52 1016.61 1016.48 1016.51 1016.73 1016.79 1016.80 1016.74 1016.79 1016.87 1017.00 1016.79 1016.61 1016.33 1016.00 1015.57 1015.01 1014.55 1014.17 1013.69 1013.21 1012.57 1011.95 1011.65 1011.40 1011.03 1010.81 1010.59 1010.34 1010.13 1009.84 1009.77
1025.09 1025.28 1025.84 1026.18 1026.13 1025.66 1024.38 1020.44 1017.52 1016.87 1016.26 1016.07 1015.98 1015.99 1016.07 1016.17 1016.11 1015.96 1015.90 1015.76 1015.84 1015.98 1016.11 1016.18 1016.35 1016.47 1016.56 1016.64 1016.53 1016.42 1016.06 1015.80 1015.48 1015.14 1014.79 1014.36 1013.92 1013.55 1013.05 1012.51 1011.93 1011.76 1011.50 1011.15 1010.70 1010.48 1010.30 1010.24 1010.24
1024.74 1024.95 1025.30 1025.59 1025.67 1025.09 1024.32 1019.80 1016.60 1016.35 1016.28 1016.26 1016.05 1015.94 1015.83 1015.83 1015.57 1015.25 1015.10 1015.02 1015.08 1015.19 1015.44 1015.64 1015.78 1015.94 1016.01 1016.15 1016.21 1016.17 1016.04 1015.75 1015.42 1015.10 1014.79 1014.46 1014.05 1013.67 1013.22 1012.83 1012.41 1012.23 1012.02 1011.74 1011.42 1011.15 1010.92 1010.54 1010.56
Wind_Speed
2 2 1 4 4 3 1 2 0 3 0 1 1 2 6 5 2 3 2 4 10 7 2 9 9 8 8 9 10 7 6 7 7 7 7 7 6 5 5 3 4 2 9 8 7 7 6 7 9
1 1 4 3 5 3 2 1 3 2 4 4 4 2 5 4 2 2 1 11 12 9 3 6 9 8 8 8 8 8 7 7 8 7 6 6 5 4 2 2 3 6 8 8 8 6 6 6 7
1 3 3 5 3 4 4 3 5 2 3 2 4 4 2 3 1 1 4 10 11 4 5 5 8 7 6 6 7 7 8 7 7 6 7 5 5 4 3 1 3 7 7 8 7 6 6 6 6
2 3 4 4 4 2 1 4 3 6 3 3 3 6 2 1 1 3 8 9 9 10 4 7 6 6 5 5 6 6 6 7 6 5 6 5 5 4 4 3 3 7 7 7 7 7 7 6 6
3 3 4 4 2 2 1 1 1 2 3 2 1 4 3 1 3 3 6 8 8 11 10 8 5 3 4 3 3 5 6 6 6 6 7 7 6 6 6 5 5 6 7 8 7 8 8 7 6
4 3 3 4 3 1 1 1 1 2 2 2 4 4 2 2 2 5 5 7 7 8 9 9 10 9 4 2 4 4 4 6 6 6 7 7 7 7 8 7 7 8 9 9 9 9 9 9 9
6 4 3 5 5 2 2 2 3 3 2 3 2 4 0 1 2 3 5 6 7 8 8 7 7 8 9 7 6 4 5 6 6 7 7 7 7 7 8 8 9 10 11 11 10 10 10 11 10
5 5 4 1 5 3 1 2 1 2 2 0 1 4 4 1 1 3 4 6 6 6 7 8 8 7 6 6 8 6 5 6 6 6 7 7 6 7 8 7 9 11 12 12 11 11 11 10 9
3 5 3 5 5 4 1 2 2 1 2 3 3 2 1 0 1 3 4 6 6 6 8 8 8 8 8 7 5 7 6 5 5 5 7 7 7 8 8 7 7 9 11 12 13 13 12 10 10
5 4 4 1 1 3 2 2 1 1 2 3 3 3 2 3 4 4 4 5 5 7 9 8 8 8 8 6 7 7 6 5 6 6 8 7 8 8 7 7 7 9 10 11 13 14 12 9 8
3 4 4 2 1 1 2 2 2 2 1 2 3 3 1 2 5 4 3 2 4 4 5 9 8 7 7 6 5 3 3 4 4 6 5 6 6 6 6 5 5 7 7 7 9 10 10 11 9
7 5 3 2 4 2 2 1 2 2 1 3 1 1 1 3 3 3 4 5 6 5 7 8 8 7 7 5 4 4 4 4 4 5 7 5 3 5 6 6 7 7 6 9 9 7 10 12 13
6 3 5 3 6 5 1 2 1 3 1 3 5 4 5 2 1 1 2 3 4 5 6 7 7 7 7 7 5 5 5 4 6 6 7 5 6 6 6 5 6 7 7 8 9 9 9 11 13
2 5 4 6 4 4 3 0 3 1 0 2 5 4 2 2 1 2 1 2 3 5 7 7 8 6 7 7 8 7 6 7 5 6 7 8 7 7 8 7 6 7 8 8 9 10 9 9 9
3 5 3 7 5 3 2 2 4 1 1 3 1 0 1 2 1 1 1 2 4 5 7 8 9 9 9 9 8 7 7 8 8 7 9 10 9 9 10 8 7 6 6 10 8 8 9 9 8
6 5 3 4 6 3 2 6 2 1 5 5 6 5 3 4 4 3 3 4 5 6 8 9 8 10 10 9 8 7 7 7 8 8 8 11 10 10 9 8 9 8 7 6 7 7 8 8 9
7 3 1 1 3 3 3 6 3 3 1 7 8 7 6 5 7 7 4 4 5 5 8 9 8 9 9 9 8 8 9 7 8 8 8 11 11 11 9 8 8 10 8 8 7 6 7 8 9
5 5 1 0 4 3 3 10 11 8 8 13 10 8 8 8 10 5 4 4 5 5 6 7 7 8 9 7 6 6 6 6 6 8 9 12 9 11 9 8 10 9 8 8 9 9 7 7 8
6 5 3 2 2 4 4 8 17 9 8 12 9 8 8 9 3 4 4 4 4 4 8 8 9 9 7 6 7 5 7 8 8 8 12 12 11 11 10 8 9 9 9 10 11 10 10 7 7
5 4 2 3 3 3 5 18 17 12 9 5 5 7 6 4 4 5 4 4 5 7 8 10 9 10 7 6 7 4 6 7 9 9 10 11 11 11 10 9 8 10 8 10 11 11 6 5 6
4 5 1 0 5 1 7 9 7 1 2 3 5 4 5 7 6 5 4 5 5 7 8 9 10 11 9 10 8 7 6 5 6 7 8 8 9 9 9 9 9 9 8 8 9 9 11 7 5
3 1 2 2 4 3 4 8 7 4 6 6 6 7 8 8 6 6 6 6 5 6 6 8 9 8 8 9 8 10 6 7 7 8 9 10 10 9 8 8 7 8 7 8 8 8 10 10 9
3 2 3 2 3 3 1 1 10 4 5 5 6 9 9 9 8 9 7 6 5 4 4 5 7 8 7 7 8 7 7 6 7 6 11 10 9 8 8 6 6 7 7 7 8 8 7 8 9
4 4 5 4 2 2 1 2 9 4 5 2 2 5 8 9 8 8 7 6 6 4 3 4 7 8 8 7 8 9 9 8 7 7 8 7 7 7 7 6 5 6 6 7 6 7 9 8 7
3 4 4 6 5 5 0 2 15 5 6 5 4 5 6 7 7 8 8 6 6 5 4 4 4 7 8 8 8 8 9 9 9 9 6 8 7 6 9 9 6 5 6 6 6 7 9 8 7
2 4 6 5 2 5 1 9 10 5 4 5 6 7 6 6 6 8 8 7 7 6 5 4 4 6 7 7 8 8 8 6 6 7 6 6 6 6 7 9 8 6 6 6 6 5 5 6 6
2 1 3 7 1 3 4 9 13 6 10 9 10 6 9 8 7 9 8 8 8 7 8 7 4 5 5 7 6 7 7 8 8 9 7 6 8 7 7 6 7 7 6 7 5 3 5 5 6
2 5 3 2 1 5 5 7 8 6 4 5 8 11 8 6 7 8 8 8 7 8 7 7 5 6 6 6 4 5 6 7 7 7 7 8 8 9 8 5 3 5 5 4 4 4 4 3 3
4 1 2 2 3 3 5 8 8 7 5 5 5 6 6 7 7 7 7 7 8 6 7 7 7 6 6 5 5 6 4 5 6 6 8 9 8 8 9 8 5 6 6 5 2 3 5 6 5
3 5 5 4 4 3 1 13 3 7 6 5 7 6 5 6 7 7 7 7 6 8 7 8 7 7 7 6 5 6 5 5 6 6 7 8 8 6 6 6 6 6 6 6 6 4 4 5 5
Wind_Direction
39 34 53 47 88 64 198 208 277 140 148 345 24 126 101 45 50 105 337 337 333 315 194 170 166 160 156 154 156 153 147 141 136 130 133 138 139 134 139 168 207 186 145 116 105 86 113 105 113
58 119 51 94 96 117 222 222 166 151 142 137 69 43 51 78 27 60 17 340 320 304 225 158 159 161 162 163 166 170 167 164 159 148 149 154 159 159 148 41 202 166 139 116 123 113 115 126 131
107 44 87 93 113 166 165 186 148 118 151 17 95 41 72 94 73 9 330 321 311 296 203 163 158 153 156 168 174 187 185 184 176 171 167 171 173 186 193 86 72 153 118 126 137 143 147 154 161
98 40 56 90 149 193 120 145 114 128 102 60 110 69 74 325 270 331 324 342 12 10 33 132 148 149 150 176 190 203 195 192 184 184 190 185 197 204 206 185 113 141 141 152 158 165 169 175 176
47 60 72 82 116 118 171 82 332 106 96 58 336 139 84 21 323 344 4 15 21 27 28 54 57 119 162 179 192 208 210 203 201 200 202 202 207 214 218 190 184 176 174 176 178 181 183 187 196
64 91 84 155 156 115 69 23 94 74 62 79 89 105 127 323 353 360 13 22 27 32 27 30 22 18 5 263 212 225 233 235 230 220 225 220 223 224 223 210 201 204 205 200 199 196 196 198 199
107 85 121 125 141 121 126 330 79 107 82 50 124 90 124 64 83 9 16 25 29 28 26 21 18 19 19 19 360 313 255 253 257 248 241 239 250 244 248 226 217 218 217 216 215 213 208 208 211
102 95 101 79 170 151 330 82 83 63 103 357 354 142 160 118 106 13 9 17 17 18 20 12 7 2 12 357 19 358 332 324 295 268 253 242 244 251 254 260 241 233 229 226 220 220 218 216 218
121 70 131 165 165 153 325 116 26 309 107 64 15 83 40 105 37 29 8 0 360 358 3 359 358 355 352 348 356 353 349 338 305 277 262 260 250 245 247 248 249 248 242 236 231 227 224 218 219
71 87 148 114 95 133 82 82 338 130 102 68 64 59 60 63 49 33 6 345 334 338 344 360 356 354 351 344 349 343 344 338 325 313 293 279 255 248 243 246 242 251 255 255 241 234 228 223 234
41 106 152 64 88 69 98 72 313 125 161 159 179 157 20 29 11 356 337 321 325 324 342 349 347 347 352 345 343 340 336 331 324 325 314 307 285 259 247 250 251 249 240 249 248 249 241 234 233
92 53 84 61 359 83 76 303 69 341 108 90 64 108 286 342 334 344 343 338 343 349 356 357 358 359 0 342 341 329 330 331 321 323 313 306 295 291 274 263 256 250 245 246 243 243 244 238 235
75 119 59 86 64 59 183 75 310 267 289 319 220 248 269 221 197 72 30 31 1 2 347 349 346 353 351 349 341 334 326 314 308 301 298 296 286 275 266 251 256 254 257 250 244 244 241 240 241
72 94 99 45 31 47 39 16 343 221 341 58 121 158 190 211 164 166 16 348 353 331 336 330 331 330 335 329 323 316 313 311 304 300 294 291 282 279 272 263 241 242 246 252 251 246 238 237 236
91 74 69 23 2 30 351 250 227 210 334 192 159 154 268 223 234 230 260 306 321 327 325 333 328 334 331 320 313 309 304 306 298 295 296 291 284 274 276 272 266 249 236 243 240 245 247 239 231
58 47 82 353 355 9 30 263 198 123 162 230 264 257 292 220 224 239 276 311 324 326 335 325 324 323 322 319 315 308 302 295 291 287 285 284 280 274 267 261 260 260 246 234 226 226 229 230 238
13 138 108 86 25 351 59 270 256 163 227 258 257 266 276 229 236 242 270 295 303 307 319 320 323 320 319 314 309 306 301 295 290 285 280 278 274 265 255 255 257 259 252 245 230 223 226 236 237
168 121 65 230 340 359 284 265 271 259 244 254 261 268 262 240 240 220 254 263 278 287 310 311 315 317 322 311 304 298 296 290 285 284 280 279 269 268 263 252 250 249 251 254 252 232 223 230 238
119 98 105 323 7 327 267 277 278 272 246 259 267 265 257 238 238 240 254 271 294 311 333 337 327 330 334 333 328 326 319 313 298 290 283 278 275 268 261 256 249 238 244 249 254 254 246 235 229
67 91 32 298 357 353 346 293 278 266 253 233 263 274 247 234 252 272 293 313 329 320 330 334 331 329 326 330 315 298 312 303 295 293 291 284 279 274 270 260 252 244 241 244 249 252 242 247 220
42 110 120 233 324 57 321 282 310 326 259 248 243 245 234 228 245 267 283 293 313 325 338 337 334 329 323 328 324 318 304 295 307 310 308 305 302 291 282 273 264 258 249 248 244 237 236 234 213
104 170 104 51 41 263 6 281 295 294 290 241 237 226 233 235 242 254 264 281 300 316 331 341 338 330 327 328 321 317 314 318 316 307 303 303 307 301 291 282 268 259 254 248 245 248 243 229 229
127 73 71 73 82 23 18 12 270 351 292 263 235 229 234 235 235 245 246 257 277 293 322 336 326 336 329 322 318 316 312 313 316 315 315 316 318 310 297 291 285 271 268 259 251 244 249 252 245
129 78 46 55 56 3 11 134 280 222 222 257 260 232 231 230 239 252 254 257 259 266 311 344 351 332 328 325 320 320 317 317 318 322 323 328 327 326 328 315 291 275 268 279 279 266 252 247 245
85 61 343 354 13 233 241 288 247 263 240 223 230 264 249 233 239 244 249 256 261 272 295 333 334 319 328 323 321 321 321 310 304 313 317 324 328 335 334 325 309 298 293 289 277 264 261 245 234
81 130 151 217 253 287 6 241 253 219 283 238 256 254 261 249 238 243 246 252 254 254 264 264 280 314 323 331 323 314 312 316 312 312 316 312 313 316 319 332 334 328 312 300 288 271 257 259 250
159 129 147 104 168 291 248 281 283 267 253 243 250 249 248 248 246 248 251 244 248 244 241 242 265 292 310 311 320 321 327 332 331 327 330 325 318 315 316 333 344 350 354 341 321 290 295 287 271
139 150 82 17 216 267 275 274 247 309 278 231 243 238 253 255 257 252 248 248 244 235 235 230 230 253 278 291 314 314 327 332 332 329 337 330 327 323 318 331 356 345 338 340 355 360 350 353 10
149 207 93 141 168 207 302 265 213 230 239 243 268 264 266 273 270 266 257 246 237 229 226 231 231 240 262 280 294 300 317 325 328 347 353 343 333 334 333 332 1 357 351 348 40 65 51 52 38
179 195 168 149 209 230 280 271 249 245 282 283 281 296 289 270 271 280 278 274 254 239 229 229 230 233 235 249 265 285 307 324 336 348 349 341 338 345 344 348 28 15 9 10 17 26 40 78 84